181 visiteurs
Prévisions de votre ville :
Vigilance : 6 départements Mise à jour le 15/09/2019 à 16:06 - Voir la carte

Paris Roissy CDG (95380) le 16/09/2019 à 00:30 Choisir station

17°C 68 % N Vit. moyenne 13 kmh/h

Relevés météo quotidiens pour la station de :

UTC
S: Synop
M: Metar
Loc T°C
(°C)
Td
(°C)
HR
(%)
Vis
(km)
Néb
(octa)
Vent
(km/h)
Pression
(mb)
Précipitations
(mm)
Temps
              MOY
10 min
DIR RAF 1h MESURE VAR SUR 3h    
S 00 h 02h 19.8 14.6 72 40 - 2 4 1022.6 +0.6/3h 0.0/6h - 0.0/3h -
S 01 h 03h 19.5 14.1 71 55 8/8 2 4 1022.8 +0.5/3h 0.0/1h
S 02 h 04h 18.2 13.5 74 35 - - - 2 1023.1 +0.1/3h 0.0/1h -
S 03 h 05h 17.2 13.3 78 30 - - - 2 1023.2 +0.3/3h 0.0/3h -
S 04 h 06h 16.4 14.2 87 29 - - - 7 1023.4 +0.3/3h 0.0/1h -
S 05 h 07h 16.2 13.7 85 30 7/8 2 6 1023.4 +0.1/3h 0.0/1h
S 06 h 08h 19.3 14.3 73 19 6/8 - - 6 1023.4 +0.4/3h 0.0/12h - 0.0/3h - 0.0/24h
S 07 h 09h 23.3 14.3 57 55 - 2 4 1023.2 +0.4/3h 0.0/1h -
S 08 h 10h 26.5 13.9 46 45 - 4 9 1023.0 +0.6/3h 0.0/1h -
S 09 h 11h 27.6 13.9 43 45 - 6 13 1022.6 0.0/3h 0.0/3h -
S 10 h 12h 30.2 13.0 35 18 - 7 19 1022.1 -0.4/3h 0.0/1h -
S 11 h 13h 31.4 12.7 32 18 - 9 22 1021.7 -0.8/3h 0.0/1h -
S 12 h 14h 32.3 14.4 34 6 - 4 13 1021.1 -1.0/3h 0.0/6h - 0.0/3h -
S 13 h 15h 32.9 14.0 32 40 - 2 13 1020.4 -1.4/3h 0.0/1h -
S 14 h 16h 33.6 15.1 33 19 - 9 28 1019.8 -1.7/3h 0.0/1h -
S 15 h 17h 34.2 14.7 31 19 - 11 26 1019.3 -1.6/3h 0.0/3h -
S 16 h 18h 34.4 14.3 30 55 - 9 20 1018.7 -1.6/3h 0.0/1h -
S 17 h 19h 34.3 12.6 27 19 - 6 19 1018.4 -1.3/3h 0.0/1h -
S 18 h 20h 33.2 13.8 31 26 - 9 19 1018.5 -0.9/3h 0.0/12h - 0.0/3h -
S 19 h 21h 30.7 13.9 36 45 - 7 15 1018.8 -0.2/3h 0.0/1h -
S 20 h 22h 26.8 14.2 46 18 - 6 7 1019.3 +0.2/3h 0.0/1h -
S 21 h 23h 24.7 14.8 54 24 - - - 9 1019.5 +0.3/3h 0.0/3h -
S 22 h 00h 22.4 14.8 62 24 - 2 4 1019.9 +0.3/3h 0.0/1h -
S 23 h 01h 21.4 15.2 68 22 - 4 6 1020.0 +0.2/3h 0.0/1h -
evolution des temperatures
cumul des precipitations
vent moyen et rafales
pression atmospherique

Un tiret (-) signifie que les données ne sont pas disponibles.

Passez la souris sur les pictos temps pour avoir plus de précisions. Passez les flèches sur l'icône de la direction du vent pour voir la direction précise en degrés.

Les données de l'heure en cours sont disponibles à partir de H+15 minutes.


S signifie station Synop, plus complète qu'une station Metar (M). Il y a +1h de différence entre l'heure UTC et l'heure légale en hiver et +2h en été.

Td est la mesure du point de rosée.

HR est l'humidité relative/p>

Vis est la visibilité

Néb est la nébulosité du ciel (couverture nuageuse) exprimée en octas (de 0/8 à 8/8).

Vent moy 10 min donne le vent moyen sur les 10 minutes qui précèdent le relevé.

Vent raf 1h donne la rafale maximale mesurée dans l'heure qui précède le relevé.


Les données les plus anciennes remontent à avril 2014.

Les données présentées sur cette page proviennent des stations météo officielles. Les relevés sont effectués aux normes en vigueur (anémomètre à 10m de haut, thermomètre sous abri normalisé à 2m du sol...)

Météo 60 décline toute responsabilité en cas d'absence de données, d'erreurs, de mauvaise utilisation ou interprétation et n'est pas habilité à fournir des certificats intempéries.